Tampico, Mexico

6:07 PM CDT on June 22, 2017 (GMT -0500)
Gen Francisco Javier Mina

Weather History for MMTM - October, 2012

Change the Weather History Date:

Friday, October 26, 2012

  Actual Average Record
Temperature  
Mean Temperature 82 °F -  
Max Temperature 91 °F 81 °F 91 °F (2006)
Min Temperature 74 °F 64 °F 62 °F (2003)
Cooling Degree Days 18    
Growing Degree Days 32 (Base 50)    
Moisture  
Dew Point 72 °F    
Average Humidity 75    
Maximum Humidity 100    
Minimum Humidity 51    
Precipitation  
Precipitation 0.00 in 0.05 in - ()
Sea Level Pressure  
Sea Level Pressure 29.92 in    
Wind  
Wind Speed 4 mph ()    
Max Wind Speed 8 mph    
Max Gust Speed -    
Visibility 8.6 miles    
Events      
Averages and records for this station are not official NWS values.
T = Trace of Precipitation, MM = Missing Value Source: Averaged Metar Reports

Daily Weather History Graph

Daily Weather History Graph

Search for Another Location

Airport or City:

Trip Planner

Search our weather history database for the weather conditions in past years. The results will help you decide how hot, cold, wet, or windy it might be!

Date:

Astronomy

Oct. 26, 2012 Rise Set
Actual Time 7:32 AM CDT 6:57 PM CDT
Civil Twilight 7:09 AM CDT 7:20 PM CDT
Nautical Twilight 6:43 AM CDT 7:46 PM CDT
Astronomical Twilight 6:17 AM CDT 8:12 PM CDT
Moon 4:59 PM CDT (10/26) 4:48 AM CDT (10/26)
Length of Visible Light 12h 10m
Length of Day
11h 24m
Waxing Gibbous, 91% of the Moon is Illuminated
Oct 26
Waxing Gibbous
Oct 29
Full
Nov 6
Last Quarter
Nov 13
New
Nov 20
First Quarter

Hourly Weather History & Observations

Time (CDT) Temp. Heat Index Dew Point Humidity Pressure Visibility Wind Dir Wind Speed Gust Speed Precip Events Conditions
12:40 AM 74 °F - 74 °F 100% 29.90 in 6 mi SE 2.2 mph - -  
3:40 AM 76 °F - 74 °F 94% 29.90 in 6 mi West 2.2 mph - -   Partly Cloudy
5:45 AM 75.2 °F - 71.6 °F 89% 29.87 in 8.0 mi SW 5.8 mph - N/A   Clear
6:35 AM 75 °F - 75 °F 99% 29.92 in 6 mi WNW 4.5 mph - -   Scattered Clouds
6:52 AM 75.2 °F - 71.6 °F 89% 29.85 in 7.0 mi West 6.9 mph - N/A   Scattered Clouds
7:40 AM 75.2 °F - 71.6 °F 89% 29.90 in 7.0 mi Calm Calm - N/A   Mostly Cloudy
8:43 AM 78.8 °F - 71.6 °F 78% 29.93 in 8.0 mi West 5.8 mph - N/A   Partly Cloudy
9:40 AM 80 °F - 73 °F 75% 29.98 in 11 mi WNW 4.5 mph - -   Partly Cloudy
9:43 AM 78.8 °F - 71.6 °F 78% 29.94 in 8.0 mi WNW 8.1 mph - N/A   Partly Cloudy
10:42 AM 80.6 °F 84.6 °F 71.6 °F 74% 29.95 in 8.0 mi West 8.1 mph - N/A   Scattered Clouds
11:40 AM 82.4 °F 87.2 °F 71.6 °F 70% 29.95 in 8.0 mi West 8.1 mph - N/A   Scattered Clouds
12:40 PM 87 °F - 71 °F 51% 29.98 in 16 mi SW 4.5 mph - -   Partly Cloudy
12:43 PM 82.4 °F 86.3 °F 69.8 °F 66% 29.90 in 7.0 mi NW 5.8 mph - N/A   Scattered Clouds
1:41 PM 86.0 °F 90.4 °F 69.8 °F 58% 29.91 in 7.0 mi NW 6.9 mph - N/A   Scattered Clouds
2:43 PM 86.0 °F 91.8 °F 71.6 °F 62% 29.89 in 7.0 mi East 4.6 mph - N/A   Partly Cloudy
3:45 PM 90 °F - 74 °F 51% 29.91 in 16 mi East 4.5 mph - -   Scattered Clouds
3:48 PM 86.0 °F 91.8 °F 71.6 °F 62% 29.89 in 7.0 mi NNE 4.6 mph - N/A   Clear
4:40 PM 84.2 °F 88.4 °F 69.8 °F 62% 29.87 in 10.0 mi East 8.1 mph - N/A   Clear
5:42 PM 82.4 °F 86.3 °F 69.8 °F 66% 29.88 in 10.0 mi East 5.8 mph - N/A   Clear
6:40 PM 83 °F - 74 °F 67% 29.93 in 12 mi East 6.7 mph - -   Scattered Clouds
6:42 PM 80.6 °F 84.6 °F 71.6 °F 74% 29.86 in 10.0 mi NE 5.8 mph - N/A   Clear
7:53 PM 78.8 °F - 69.8 °F 74% 29.93 in 8.0 mi ENE 4.6 mph - N/A   Clear
8:49 PM 78.8 °F - 71.6 °F 78% 29.95 in 8.0 mi ENE 4.6 mph - N/A   Clear
9:40 PM 79 °F - 74 °F 81% 30.01 in 6 mi NE 6.7 mph - -  
9:42 PM 78.8 °F - 71.6 °F 78% 29.98 in 8.0 mi NE 4.6 mph - N/A   Clear
10:48 PM 78.8 °F - 71.6 °F 78% 29.99 in 8.0 mi NE 2.3 mph - N/A   Partly Cloudy